Overview Statistics Trail Chart Weather Telemetry Raw packets
 

This is the latest recevied weather packets stored in our database for station/object s59zo-6. If no packets are shown the sender has not sent any weather packets the latest 10 day(s).

<< 38 39 40 41 42 43 44 >>
Time Temp. Humidity Pressure Rain* Wind** Luminosity Snow
1788435904 28.89° C 32% 1019.2 hPa 0 mm - - -
1788435605 28.89° C 33% 1019.4 hPa 0 mm - - -
1788435304 28.89° C 33% 1019.5 hPa 0 mm - - -
1788435005 28.33° C 33% 1019.6 hPa 0 mm - - -
1788434705 28.33° C 32% 1019.6 hPa 0 mm - - -
1788434404 28.33° C 32% 1019.6 hPa 0 mm - - -
1788434104 28.33° C 34% 1019.6 hPa 0 mm - - -
1788433805 28.33° C 36% 1019.5 hPa 0 mm - - -
1788433504 27.78° C 35% 1019.5 hPa 0 mm - - -
1788433204 27.78° C 33% 1019.6 hPa 0 mm - - -
1788432904 27.78° C 35% 1019.7 hPa 0 mm - - -
1788432604 27.78° C 37% 1019.8 hPa 0 mm - - -
1788432304 27.78° C 37% 1019.7 hPa 0 mm - - -
1788432005 27.78° C 39% 1019.9 hPa 0 mm - - -
1788431705 27.78° C 38% 1019.9 hPa 0 mm - - -
1788431404 27.22° C 43% 1020.1 hPa 0 mm - - -
1788431103 27.22° C 42% 1020.1 hPa 0 mm - - -
1788430805 27.22° C 42% 1020.3 hPa 0 mm - - -
1788430504 27.22° C 44% 1020.4 hPa 0 mm - - -
1788430204 26.67° C 44% 1020.3 hPa 0 mm - - -
1788429904 26.67° C 46% 1020.5 hPa 0 mm - - -
1788429605 26.67° C 46% 1020.4 hPa 0 mm - - -
1788429304 26.67° C 46% 1020.5 hPa 0 mm - - -
1788429005 26.11° C 49% 1020.5 hPa 0 mm - - -
1788428704 26.11° C 49% 1020.6 hPa 0 mm - - -

* Rain latest hour (hover to see other rain measurements)
** Current wind speed in m/s (hover to see current wind gust speed)